Regional Weather Roundup
Issued by NWS Sioux Falls, SD

Home | Current Version | Previous Version | Text Only | Print | Product List | Glossary On
Versions: 1 2 3 4 5 6 7 8 9 10 11 12 13 14 15 16 17 18 19 20 21 22 23 24 25 26 27 28 29 30 31 32 33 34 35 36 37 38 39 40 41 42 43 44 45 46 47 48 49 50
000
ASUS43 KFSD 020710
RWRFSD

WEATHER ROUNDUP FOR SE SOUTH DAKOTA/SW MINNESOTA/NW IOWA
NATIONAL WEATHER SERVICE SIOUX FALLS SD
200 AM CDT TUE SEP 02 2014

NOTE: "FAIR" INDICATES FEW OR NO CLOUDS BELOW 12,000 FEET WITH NO
SIGNIFICANT WEATHER AND OR OBSTRUCTIONS TO VISIBILITY.


SDZ038>040-050-052>070-020800-
SOUTHEAST SOUTH DAKOTA

CITY           SKY/WX    TMP DP  RH WIND       PRES   REMARKS
CHAMBERLAIN    CLEAR     56  54  93 SW8       29.94R
HURON          MOCLDY    56  54  93 SW5       29.89R
MADISON        FAIR      59  57  94 W10       29.90S
MITCHELL       CLOUDY    60  56  86 W7        29.92S
SIOUX FALLS    CLOUDY    62  55  77 W7        29.89R
WINNER         FAIR      55  51  86 SW8       29.97R
YANKTON        MOCLDY    57  54  88 W8        29.93S
$$

MNZ071-072-080-081-089-090-097-098-020800-
SOUTHWEST MINNESOTA

CITY           SKY/WX    TMP DP  RH WIND       PRES   REMARKS
FAIRMONT       CLOUDY    59  54  82 CALM      29.86S
JACKSON        CLOUDY    61  55  82 W3        29.88S
LUVERNE        LGT RAIN  61  55  82 NW7       29.89R
MARSHALL       CLOUDY    63  52  67 W9        29.86R
MONTEVIDEO     CLOUDY    61  55  82 W3        29.86S
PIPESTONE      CLOUDY    63  54  72 NW10G17   29.90R
REDWOOD FALLS  CLOUDY    64  53  67 W10       29.85S
TRACY          CLOUDY    63  54  74 W6        29.87S
WINDOM         CLOUDY    61  57  88 CALM      29.88R
WORTHINGTON    CLOUDY    61  54  77 W6        29.89S
$$

IAZ001>003-012>014-020>022-031-032-NEZ013-014-SDZ071-020800-
NORTHWEST IOWA

CITY           SKY/WX    TMP DP  RH WIND       PRES   REMARKS
CHEROKEE       CLOUDY    60  58  95 CALM      29.92F
DENISON        CLOUDY    59  59 100 NE6       29.89F
ESTHERVILLE    CLOUDY    58  57  97 SW6       29.88R
LE MARS          N/A     59  59 100 W10G17    29.92R
ORANGE CITY    CLOUDY    61  57  88 CALM      29.89F
SHELDON        CLOUDY    61  59  94 VRB5      29.89S
SIOUX CITY     PTCLDY    59  57  93 W3          N/A
SPENCER        CLOUDY    63  59  87 W12       29.90R
STORM LAKE     LGT RAIN  59  59 100 W8G14     29.92F
$$

ABBREVIATIONS USED IN REMARKS
   TC - TEMPERATURE IN CELSIUS
  WCI - WIND CHILL INDEX
   HX - HEAT INDEX
  VSB - VISIBILITY



USA.gov is the U.S. government's official web portal to all federal, state and local government web resources and services.